Regional Weather Roundup
Issued by NWS

Home | Current Version | Previous Version | Graphics & Text | Print | Product List | Glossary On
Versions: 1 2 3 4 5 6 7 8 9 10 11 12 13 14 15 16 17 18 19 20 21 22 23 24 25 26 27 28 29 30 31 32 33 34 35 36 37 38 39 40 41 42 43 44 45 46 47 48 49 50
000
ASUS45 KPSR 300310
RWRAZ

ARIZONA REGIONAL HOURLY WEATHER ROUNDUP
NATIONAL WEATHER SERVICE PHOENIX AZ
800 PM MST SUN MAR 29 2015

NOTE: FAIR INDICATES FEW OR NO CLOUDS BELOW 12,000 FEET WITH NO
SIGNIFICANT WEATHER AND/OR OBSTRUCTIONS TO VISIBILITY.

AZZ001>003-036-300400-
NORTHWEST ARIZONA

CITY           SKY/WX    TMP DP  RH WIND       PRES   REMARKS
BULLHEAD CITY  PTCLDY    82  19   9 SE6       29.91R
KINGMAN        PTCLDY    67  24  19 S9        30.07R
$$

AZZ004>008-015-016-018-300400-
NORTH CENTRAL ARIZONA

CITY           SKY/WX    TMP DP  RH WIND       PRES   REMARKS
GRAND CANYON   MOCLDY    49  26  41 CALM      30.25R
WILLIAMS       MOCLDY    57  12  17 SW7       30.32S
PRESCOTT       MOCLDY    61  20  20 S7        30.18R
FLAGSTAFF      PTCLDY    48  22  35 CALM      30.28R
PAYSON         PTCLDY    64  18  16 CALM      30.20R
PAGE           MOCLDY    71  22  15 SE5       30.09R
$$

AZZ009>014-017-300400-
NORTHEAST ARIZONA

CITY           SKY/WX    TMP DP  RH WIND       PRES   REMARKS
WINSLOW        PTCLDY    60  19  20 SW6       30.16R
SAINT JOHNS    PTCLDY    63  10  12 SW10      30.19R
WINDOW ROCK    MOCLDY    57  22  25 CALM      30.25R
SHOW LOW       CLEAR     54  16  22 S9        30.28R
$$

AZZ023-300400-
GREATER PHOENIX AREA

CITY           SKY/WX    TMP DP  RH WIND       PRES   REMARKS
PHOENIX        MOCLDY    90  17   7 N6        29.91S
BUCKEYE        MOCLDY    75  27  16 N8        29.92S
LUKE AFB       PTCLDY    79  38  22 CALM      29.91R
DEER VALLEY    PTCLDY    75  29  18 CALM      29.94S
SCOTTSDALE     PTCLDY    83  24  11 CALM      29.96S
MESA-GATEWAY   PTCLDY    79  25  13 N5        29.97R
CHANDLER       MOCLDY    82  25  12 N7        29.94R
$$

AZZ027-028-300400-
SOUTHWEST MARICOPA COUNTY AND PINAL COUNTY

CITY           SKY/WX    TMP DP  RH WIND       PRES   REMARKS
CASA GRANDE    PTCLDY    79  21  11 CALM      29.94S
$$

AZZ503-504-507>509-300400-
SOUTHEAST ARIZONA

CITY           SKY/WX    TMP DP  RH WIND       PRES   REMARKS
TUCSON         MOCLDY    80  25  13 SW3       30.05R
RYAN FIELD       N/A     79  30  17 S7        30.04R
NOGALES        CLOUDY    68  28  22 E3        30.12S
SIERRA VISTA   MOCLDY    69  20  15 W12       30.17R
DOUGLAS        CLOUDY    69  26  20 CALM      30.14R
SAFFORD        MOCLDY    73  20  13 NW9       30.04R
$$

AZZ020-021-025-026-031-300400-
SOUTHWEST ARIZONA

CITY           SKY/WX    TMP DP  RH WIND       PRES   REMARKS
YUMA           PTCLDY    87  39  18 SW9       29.88R
$$

CAZ031-033-041-043-047-048-061-300400-
SOUTHERN CALIFORNIA

CITY           SKY/WX    TMP DP  RH WIND       PRES   REMARKS
DOWNTOWN L.A.  CLEAR     64  58  80 W5        29.99R
L.A. AIRPORT   PTCLDY    61  57  87 W9        30.00R
SAN DIEGO      MOCLDY    65  57  75 NW6       30.01R
BURBANK        CLEAR     71  48  43 S6        29.99R
ONTARIO        CLEAR     73  42  32 W9        29.98R
RIVERSIDE      CLEAR     73  43  33 VRB5      29.99R
PALM SPRINGS   CLEAR     88  36  15 N10       29.90R
EL CENTRO NAS  MOCLDY    83  39  21 CALM      29.85S
IMPERIAL       MOCLDY    87  38  17 CALM      29.84F
BLYTHE         CLOUDY    87  33  14 W3        29.87S
NEEDLES        PTCLDY    82  18   9 S5        29.91R
$$

NVZ020-UTZ003-300400-
SOUTHERN NEVADA-UTAH

CITY           SKY/WX    TMP DP  RH WIND       PRES   REMARKS
LAS VEGAS      PTCLDY    83  19   9 SE6       29.93S
SALT LAKE CITY CLEAR     54  28  36 W5        30.20R
$$

NMZ009-TXZ055-300400-
NEW MEXICO-WEST TEXAS

CITY           SKY/WX    TMP DP  RH WIND       PRES   REMARKS
ALBUQUERQUE    CLOUDY    69  23  17 SE21      30.15R
EL PASO        CLOUDY    80  12   7 W6        30.11R
$$


........................KEY........................
SKY/WX - SKY CONDITION/WEATHER
TMP    - TEMPERATURE IN FAHRENHEIT
DP     - DEW POINT IN FAHRENHEIT
RH     - RELATIVE HUMIDITY IN PERCENT
WIND   - DIRECTION AND SPEED IN MILES PER HOUR (MPH)
VRB    - VARIABLE WIND DIRECTION
PRES   - MEAN SEA LEVEL PRESSURE IN INCHES OF MERCURY
         F - FALLING PRESSURE   R - RISING PRESSURE
         S - STEADY PRESSURE
VSB    - VISIBILITY IN MILES
HX     - HEAT INDEX IN FAHRENHEIT
WCI    - WIND CHILL INDEX IN FAHRENHEIT
TC     - TEMPERATURE IN CELSIUS WHICH IS ALSO KNOWN AS
         TEMPERATURE IN CENTIGRADE
AFB    - AIR FORCE BASE
         LUKE AFB IS LUKE AIR FORCE BASE
         DAVIS-MONTHAN IS DAVIS-MONTHAN AIR FORCE BASE
NAS    - NAVAL AIR STATION
         EL CENTRO NAS IS EL CENTRO NAVAL AIR STATION
N/A    - NOT AVAILABLE



USA.gov is the U.S. government's official web portal to all federal, state and local government web resources and services.